1992-01-01 03:00:00,4.6,2.3,197.8,56.4
1992-01-01 06:00:00,4.7,2.2,214.2,58.7
1992-01-01 09:00:00,4.1,2.7,210.5,46.6
1992-01-01 12:00:00,3.1,2.5,202.2,33.3
1992-01-01 15:00:00,2.1,1.1,213.3,54.2
1992-01-01 18:00:00,3.7,3.1,183.0,32.9
1992-01-01 21:00:00,0.9,0.3,58.7,67.9
1992-01-02 00:00:00,1.2,0.3,184.9,71.5
1992-01-02 03:00:00,8.0,7.7,346.8,14.7
1992-01-02 06:00:00,9.3,8.9,349.1,16.1
1992-01-02 09:00:00,9.6,9.3,346.9,14.8
1992-01-02 12:00:00,9.7,9.4,345.9,14.0
1992-01-02 15:00:00,9.8,9.5,350.4,14.3
1992-01-02 18:00:00,5.8,5.5,360.0,17.0
1992-01-02 21:00:00,3.9,3.7,359.2,19.1
1992-01-03 00:00:00,3.1,2.2,330.8,43.9
1992-01-03 03:00:00,1.9,1.6,31.9,30.9
1992-01-03 06:00:00,2.2,2.0,21.8,21.9
1992-01-03 09:00:00,2.0,1.5,22.8,42.1
1992-01-03 12:00:00,1.8,1.7,15.6,23.3
1992-01-03 15:00:00,1.9,1.8,16.1,16.1
1992-01-03 18:00:00,2.5,2.2,25.7,27.0
1992-01-03 21:00:00,2.1,1.9,28.1,26.3
1992-01-04 00:00:00,1.8,0.4,81.9,70.5
1992-01-04 03:00:00,1.7,0.5,164.6,68.7
1992-01-04 06:00:00,5.0,3.9,0.0,37.9
1992-01-04 09:00:00,6.6,5.6,8.7,30.8
1992-01-04 12:00:00,5.6,4.8,7.2,29.8
1992-01-04 15:00:00,8.3,7.8,332.5,20.4
1992-01-04 18:00:00,3.9,3.4,345.7,28.5
1992-01-04 21:00:00,4.3,3.5,342.2,35.7
1992-01-05 00:00:00,7.3,7.1,345.0,14.3
1992-01-05 03:00:00,6.8,6.6,336.4,14.7
1992-01-05 06:00:00,4.5,4.0,322.0,26.3
1992-01-05 09:00:00,2.1,1.8,26.1,30.4
1992-01-05 12:00:00,2.0,1.9,20.2,20.5
1992-01-05 15:00:00,3.8,3.6,3.0,20.8
1992-01-05 18:00:00,7.4,7.2,347.3,12.9
1992-01-05 21:00:00,6.5,6.3,351.2,15.3
1992-01-06 00:00:00,7.1,6.9,344.5,16.2
1992-01-06 03:00:00,7.7,7.1,347.1,21.9
1992-01-06 06:00:00,8.4,8.0,343.2,17.9
1992-01-06 09:00:00,11.0,10.7,345.4,13.2
1992-01-06 12:00:00,8.6,8.4,343.9,13.5
1992-01-06 15:00:00,8.4,8.1,341.3,14.8
1992-01-06 18:00:00,7.8,7.7,345.6,11.8
1992-01-06 21:00:00,4.4,3.7,331.4,33.8
1992-01-07 00:00:00,1.8,1.6,23.3,26.7
1992-01-07 03:00:00,1.9,1.8,20.2,22.2
1992-01-07 06:00:00,2.1,2.0,20.0,16.6
1992-01-07 09:00:00,2.4,2.3,19.3,16.8
1992-01-07 12:00:00,2.0,1.9,16.7,18.3
1992-01-07 15:00:00,1.9,1.8,20.1,18.3
1992-01-07 18:00:00,1.9,1.7,15.3,25.2
1992-01-07 21:00:00,1.7,1.5,16.8,29.1
1992-01-08 00:00:00,1.8,1.7,21.0,22.6
1992-01-08 03:00:00,1.7,1.3,35.2,38.8
1992-01-08 06:00:00,1.9,1.6,21.2,29.3
1992-01-08 09:00:00,2.1,1.6,31.2,39.4
1992-01-08 12:00:00,1.7,1.6,20.5,20.4
1992-01-08 15:00:00,1.1,0.8,34.2,43.2
1992-01-08 18:00:00,1.7,1.6,14.2,16.4
1992-01-08 21:00:00,1.3,1.0,30.8,38.4
1992-01-09 00:00:00,1.8,1.6,24.5,27.3
1992-01-09 03:00:00,1.7,1.3,29.8,41.8
1992-01-09 06:00:00,1.4,0.5,27.9,63.9
1992-01-09 09:00:00,1.4,0.9,43.9,49.1
1992-01-09 12:00:00,2.4,2.0,25.0,32.7
1992-01-09 15:00:00,2.3,2.1,34.9,22.5
1992-01-09 18:00:00,1.7,1.5,22.2,25.7
1992-01-09 21:00:00,1.7,1.5,20.5,25.5
1992-01-10 00:00:00,1.7,1.6,25.3,20.3
1992-01-10 03:00:00,1.7,1.6,18.4,19.4
1992-01-10 06:00:00,1.7,1.5,25.4,27.5
1992-01-10 09:00:00,1.7,0.4,55.1,70.3
1992-01-10 12:00:00,1.4,1.1,9.8,37.5
1992-01-10 15:00:00,1.0,0.2,156.3,70.1
1992-01-10 18:00:00,1.3,1.2,3.0,26.6
1992-01-10 21:00:00,3.9,3.5,18.8,27.1
1992-01-11 00:00:00,4.8,1.4,0.5,68.4
1992-01-11 03:00:00,6.0,3.2,183.6,55.4
1992-01-11 06:00:00,5.3,2.2,153.7,62.0
1992-01-11 09:00:00,8.4,6.3,28.4,40.5
1992-01-11 12:00:00,8.1,6.7,16.3,33.8
1992-01-11 15:00:00,7.6,7.1,10.1,21.8
1992-01-11 18:00:00,7.4,7.0,353.1,19.0
1992-01-11 21:00:00,7.5,7.2,340.4,18.0
1992-01-12 00:00:00,6.6,5.9,322.0,25.3
1992-01-12 03:00:00,5.4,4.2,353.9,38.2
1992-01-12 06:00:00,8.9,7.8,10.8,28.2
1992-01-12 09:00:00,9.4,8.3,311.0,27.5
1992-01-12 12:00:00,11.1,10.2,316.4,23.3
1992-01-12 15:00:00,13.2,12.3,332.5,21.6
1992-01-12 18:00:00,11.0,10.5,331.1,18.0
1992-01-12 21:00:00,7.4,6.9,326.0,21.3
1992-01-13 00:00:00,4.4,2.9,320.9,47.7
1992-01-13 03:00:00,4.8,4.4,329.3,22.2
1992-01-13 06:00:00,1.5,0.8,28.4,55.2
1992-01-13 09:00:00,1.7,1.6,26.2,16.7
1992-01-13 12:00:00,1.3,1.2,31.1,23.7
1992-01-13 15:00:00,1.7,1.5,28.0,28.7
1992-01-13 18:00:00,1.6,1.2,19.3,38.3
1992-01-13 21:00:00,1.3,0.8,16.5,47.9
1992-01-14 00:00:00,0.9,0.1,53.2,74.1
1992-01-14 03:00:00,1.3,0.4,156.6,68.9
1992-01-14 06:00:00,6.5,5.4,352.1,33.1
1992-01-14 09:00:00,6.9,6.2,0.6,25.3
1992-01-14 12:00:00,7.7,5.8,16.1,40.8
1992-01-14 15:00:00,4.9,2.3,134.1,59.1
1992-01-14 18:00:00,9.1,8.0,3.3,28.5
1992-01-14 21:00:00,9.3,8.5,348.4,23.9
1992-01-15 00:00:00,8.8,7.0,17.9,36.8
1992-01-15 03:00:00,11.5,8.9,28.6,38.1
1992-01-15 06:00:00,11.0,9.1,26.0,34.0
1992-01-15 09:00:00,12.6,11.7,16.3,22.2
1992-01-15 12:00:00,10.7,10.3,2.4,16.5
1992-01-15 15:00:00,6.4,5.5,354.5,31.1
1992-01-15 18:00:00,5.9,5.4,341.3,23.1
1992-01-15 21:00:00,10.6,10.0,347.4,19.5
1992-01-16 00:00:00,12.5,11.6,356.8,21.4
1992-01-16 03:00:00,11.6,10.5,355.5,25.2
1992-01-16 06:00:00,11.5,10.8,352.7,20.1
1992-01-16 09:00:00,13.3,12.7,356.4,17.6
1992-01-16 12:00:00,10.9,10.3,355.8,19.2
1992-01-16 15:00:00,7.7,6.9,353.1,24.8
1992-01-16 18:00:00,7.9,7.4,350.0,20.1
1992-01-16 21:00:00,7.3,6.8,355.9,21.8
1992-01-17 00:00:00,9.2,8.6,349.3,20.9
1992-01-17 03:00:00,8.1,7.5,347.7,20.8
1992-01-17 06:00:00,9.5,9.0,349.4,19.5
1992-01-17 09:00:00,9.2,8.6,349.6,20.3
1992-01-17 12:00:00,8.3,7.7,348.6,22.2
1992-01-17 15:00:00,7.6,6.8,349.1,25.6
1992-01-17 18:00:00,6.4,5.7,347.9,26.5
1992-01-17 21:00:00,6.7,6.3,345.5,20.0
1992-01-18 00:00:00,9.7,9.2,334.4,17.9
1992-01-18 03:00:00,7.2,6.8,328.6,19.4
1992-01-18 06:00:00,6.4,6.0,330.4,20.8
1992-01-18 09:00:00,4.0,2.3,352.5,52.2
1992-01-18 12:00:00,1.9,1.6,28.4,28.8
1992-01-18 15:00:00,1.8,1.7,16.0,16.4
1992-01-18 18:00:00,1.3,1.0,26.1,38.2
1992-01-18 21:00:00,2.0,1.9,22.7,18.8
1992-01-19 00:00:00,1.8,1.7,30.0,19.1
1992-01-19 03:00:00,2.1,2.0,19.4,18.0
1992-01-19 06:00:00,1.2,0.9,33.0,43.1
1992-01-19 09:00:00,1.3,0.9,41.1,46.4
1992-01-19 12:00:00,1.2,0.8,62.7,48.5
1992-01-19 15:00:00,2.4,0.9,86.5,64.5
1992-01-19 18:00:00,2.7,1.1,304.1,61.1
1992-01-19 21:00:00,2.0,0.5,254.7,69.5
1992-01-20 00:00:00,11.6,11.2,337.6,15.0
1992-01-20 03:00:00,14.7,14.1,330.2,16.4
1992-01-20 06:00:00,16.0,15.4,347.3,16.5
1992-01-20 09:00:00,15.0,14.5,353.6,14.7
1992-01-20 12:00:00,14.5,13.9,352.7,17.3
1992-01-20 15:00:00,16.4,15.7,347.9,17.1
1992-01-20 18:00:00,15.4,14.8,342.7,16.3
1992-01-20 21:00:00,8.9,8.2,352.8,23.0
1992-01-21 00:00:00,13.4,12.8,6.2,18.0
1992-01-21 03:00:00,14.3,13.6,356.6,17.4
1992-01-21 06:00:00,15.1,14.5,347.6,16.9
1992-01-21 09:00:00,10.8,10.3,346.5,18.1
1992-01-21 12:00:00,15.9,15.6,356.0,12.5
1992-01-21 15:00:00,15.6,15.0,339.4,15.9
1992-01-21 18:00:00,14.6,13.9,332.2,17.3
1992-01-21 21:00:00,15.9,15.3,345.3,16.7
1992-01-22 00:00:00,12.7,12.2,355.2,15.8
1992-01-22 03:00:00,14.4,13.8,357.6,16.8
1992-01-22 06:00:00,10.8,9.8,25.7,25.6
1992-01-22 09:00:00,11.6,10.8,325.8,20.6
1992-01-22 12:00:00,8.5,7.8,333.0,22.9
1992-01-22 15:00:00,8.3,7.8,330.3,20.8
1992-01-22 18:00:00,5.1,4.6,347.1,24.6
1992-01-22 21:00:00,7.4,5.2,345.9,43.7
1992-01-23 00:00:00,7.8,6.5,204.2,33.7
1992-01-23 03:00:00,8.9,3.2,90.2,65.0
1992-01-23 06:00:00,13.2,11.2,16.1,30.9
1992-01-23 09:00:00,8.7,6.4,357.8,41.4
1992-01-23 12:00:00,7.2,5.1,355.0,43.5
1992-01-23 15:00:00,5.8,0.8,210.2,75.6
1992-01-23 18:00:00,9.4,8.1,13.6,30.3
1992-01-23 21:00:00,9.5,8.5,20.5,25.9
1992-01-24 00:00:00,9.3,8.2,17.0,27.6
1992-01-24 03:00:00,10.4,9.3,339.0,26.3
1992-01-24 06:00:00,13.8,12.8,357.9,22.6
1992-01-24 09:00:00,11.4,9.4,9.0,34.0
1992-01-24 12:00:00,7.1,0.8,28.9,76.2
1992-01-24 15:00:00,7.8,4.2,48.9,55.3
1992-01-24 18:00:00,7.0,1.3,26.6,73.3
1992-01-24 21:00:00,12.6,11.0,17.6,28.3
1992-01-25 00:00:00,8.3,6.2,22.1,41.2
1992-01-25 03:00:00,9.5,7.1,333.8,40.9
1992-01-25 06:00:00,11.9,10.8,19.5,24.9
1992-01-25 09:00:00,7.7,5.8,355.3,39.4
1992-01-25 12:00:00,7.1,6.0,346.7,32.6
1992-01-25 15:00:00,6.2,5.2,6.7,33.4
1992-01-25 18:00:00,3.9,1.3,29.1,65.6
1992-01-25 21:00:00,5.1,1.3,131.9,69.8
1992-01-26 00:00:00,7.0,3.3,12.8,58.8
1992-01-26 03:00:00,8.5,7.8,1.5,24.2
1992-01-26 06:00:00,9.9,8.9,10.8,25.7
1992-01-26 09:00:00,13.2,12.2,360.0,22.2
1992-01-26 12:00:00,14.3,13.3,2.9,20.9
1992-01-26 15:00:00,11.6,10.8,359.8,20.9
1992-01-26 18:00:00,9.3,8.5,358.5,24.5
1992-01-26 21:00:00,12.1,11.3,354.1,20.9
1992-01-27 00:00:00,11.6,9.9,0.3,31.0
1992-01-27 03:00:00,12.1,11.0,2.8,24.9
1992-01-27 06:00:00,13.6,12.3,0.8,24.4
1992-01-27 09:00:00,7.8,6.0,23.6,38.5
1992-01-27 12:00:00,6.0,4.2,31.1,44.9
1992-01-27 15:00:00,9.2,8.4,7.5,23.3
1992-01-27 18:00:00,10.0,9.0,7.8,25.9
1992-01-27 21:00:00,10.1,9.2,15.4,24.3
1992-01-28 00:00:00,8.1,6.0,41.8,40.7
1992-01-28 03:00:00,6.2,3.8,76.9,50.0
1992-01-28 06:00:00,4.2,2.5,55.1,51.4
1992-01-28 09:00:00,6.7,3.8,96.3,53.0
1992-01-28 12:00:00,11.3,9.7,1.3,30.2
1992-01-28 15:00:00,9.5,8.2,2.2,30.8
1992-01-28 18:00:00,10.8,8.6,25.7,36.8
1992-01-28 21:00:00,10.0,8.3,11.1,33.0
1992-01-29 00:00:00,10.6,9.5,4.6,26.4
1992-01-29 03:00:00,10.1,9.0,353.9,26.8
1992-01-29 06:00:00,10.4,9.5,353.5,23.0
1992-01-29 09:00:00,14.2,13.5,352.6,17.6
1992-01-29 12:00:00,18.4,17.5,352.9,17.1
1992-01-29 15:00:00,14.5,13.9,351.4,16.1
1992-01-29 18:00:00,14.0,13.4,346.1,16.4
1992-01-29 21:00:00,14.3,13.6,349.3,17.9
1992-01-30 00:00:00,14.5,13.9,347.7,16.6
1992-01-30 03:00:00,13.2,12.4,351.5,19.9
1992-01-30 06:00:00,12.6,11.6,0.0,22.8
1992-01-30 09:00:00,10.6,10.0,353.9,19.4
1992-01-30 12:00:00,11.3,10.0,11.5,27.0
1992-01-30 15:00:00,13.2,11.9,11.6,25.4
1992-01-30 18:00:00,14.9,13.6,357.9,24.3
1992-01-30 21:00:00,12.9,11.5,8.0,25.8
1992-01-31 00:00:00,15.4,14.1,6.6,23.2
1992-01-31 03:00:00,14.5,13.3,14.2,22.9
1992-01-31 06:00:00,12.9,12.1,354.7,19.6
1992-01-31 09:00:00,13.9,12.8,351.8,22.2
1992-01-31 12:00:00,10.1,7.6,4.5,40.4
1992-01-31 15:00:00,9.6,8.2,4.9,30.7
1992-01-31 18:00:00,11.4,9.7,7.9,31.5
1992-01-31 21:00:00,12.4,11.3,358.8,24.1
1992-02-01 00:00:00,14.5,13.9,359.6,17.0
1992-02-01 03:00:00,9.4,8.8,350.2,19.9
1992-02-01 06:00:00,6.8,6.3,358.5,21.8
1992-02-01 09:00:00,6.5,6.2,2.6,18.1
1992-02-01 12:00:00,4.4,0.6,351.3,75.4
1992-02-01 15:00:00,2.7,1.0,113.0,64.7
1992-02-01 18:00:00,3.1,0.8,21.3,69.4
1992-02-01 21:00:00,2.6,0.9,9.1,66.3
1992-02-02 00:00:00,2.1,0.3,326.2,74.2
1992-02-02 03:00:00,9.6,9.2,351.7,16.1
1992-02-02 06:00:00,6.5,4.8,10.8,41.8
1992-02-02 09:00:00,4.0,0.8,78.1,72.7
1992-02-02 12:00:00,5.3,3.5,210.2,46.7
1992-02-02 15:00:00,5.3,0.8,81.3,74.3
1992-02-02 18:00:00,5.0,4.2,202.5,32.7
1992-02-02 21:00:00,6.6,6.1,207.5,23.3
1992-02-03 00:00:00,3.7,0.8,277.9,72.0
1992-02-03 03:00:00,2.0,1.1,165.8,55.0
1992-02-03 06:00:00,2.0,0.6,15.5,67.5
1992-02-03 09:00:00,2.0,1.9,25.3,23.5
1992-02-03 12:00:00,1.8,1.6,34.1,24.5
1992-02-03 15:00:00,2.2,2.0,30.7,24.7
1992-02-03 18:00:00,1.6,0.6,121.3,65.4
1992-02-03 21:00:00,1.7,0.3,322.0,72.1
1992-02-04 00:00:00,5.1,4.9,341.3,16.9
1992-02-04 03:00:00,4.4,3.9,333.5,28.1
1992-02-04 06:00:00,2.7,2.1,5.8,38.9
1992-02-04 09:00:00,2.7,2.3,39.5,29.0
1992-02-04 12:00:00,4.6,4.1,346.5,27.2
1992-02-04 15:00:00,6.4,6.1,341.0,16.8
1992-02-04 18:00:00,2.1,1.1,295.4,56.7
1992-02-04 21:00:00,1.3,0.6,202.2,58.8
1992-02-05 00:00:00,1.4,0.9,37.6,44.6
1992-02-05 03:00:00,2.0,1.8,31.4,20.6
1992-02-05 06:00:00,2.1,1.2,57.1,52.3
1992-02-05 09:00:00,2.0,1.5,33.7,38.0
1992-02-05 12:00:00,1.7,1.1,22.4,50.6
1992-02-05 15:00:00,6.3,6.0,344.6,15.8
1992-02-05 18:00:00,9.3,8.7,341.2,19.4
1992-02-05 21:00:00,8.9,8.4,341.9,18.7
1992-02-06 00:00:00,7.7,7.2,343.5,19.7
1992-02-06 03:00:00,8.8,8.4,345.4,18.0
1992-02-06 06:00:00,6.9,6.2,342.4,26.4
1992-02-06 09:00:00,2.2,0.8,69.3,63.6
1992-02-06 12:00:00,1.6,1.5,11.7,25.7
1992-02-06 15:00:00,1.3,0.8,27.3,51.4
1992-02-06 18:00:00,1.8,0.4,122.8,72.3
1992-02-06 21:00:00,1.1,0.5,53.5,60.9
1992-02-07 00:00:00,1.6,0.3,131.2,71.9
1992-02-07 03:00:00,6.2,4.1,28.5,47.1
1992-02-07 06:00:00,7.8,6.8,20.0,28.6
1992-02-07 09:00:00,4.1,2.0,196.6,57.7
1992-02-07 12:00:00,8.8,8.0,204.5,25.3
1992-02-07 15:00:00,8.3,7.1,201.2,32.0
1992-02-07 18:00:00,NaN,NaN,NaN,NaN
1992-02-07 21:00:00,10.4,9.3,204.2,26.1
1992-02-08 00:00:00,10.3,8.1,195.8,37.6
1992-02-08 03:00:00,11.1,9.9,197.7,26.6
1992-02-08 06:00:00,10.9,4.5,80.0,62.0
1992-02-08 09:00:00,11.1,7.2,36.5,48.2
1992-02-08 12:00:00,7.5,6.3,7.0,32.8
1992-02-08 15:00:00,9.7,9.3,351.8,17.3
1992-02-08 18:00:00,12.1,11.5,355.9,17.7
1992-02-08 21:00:00,5.4,4.6,4.5,31.5
1992-02-09 00:00:00,5.1,4.5,323.6,28.5
1992-02-09 03:00:00,4.4,1.5,7.7,65.6
1992-02-09 06:00:00,1.4,0.6,25.7,63.6
1992-02-09 09:00:00,2.4,2.2,17.0,26.1
1992-02-09 12:00:00,1.1,0.5,78.3,59.2
1992-02-09 15:00:00,1.2,0.3,108.5,69.7
1992-02-09 18:00:00,1.7,0.3,53.1,72.3
1992-02-09 21:00:00,1.6,0.7,60.3,59.9
1992-02-10 00:00:00,1.9,1.6,32.8,32.8
1992-02-10 03:00:00,1.7,0.7,49.4,61.1
1992-02-10 06:00:00,1.4,0.7,161.9,56.0
1992-02-10 09:00:00,1.2,0.9,140.1,44.4
1992-02-10 12:00:00,1.1,0.7,157.3,47.7
1992-02-10 15:00:00,2.3,0.9,12.5,63.2
1992-02-10 18:00:00,3.4,1.9,15.4,52.8
1992-02-10 21:00:00,1.8,0.4,99.1,70.3
1992-02-11 00:00:00,1.2,1.0,46.3,31.6
1992-02-11 03:00:00,1.5,1.4,37.2,24.5
1992-02-11 06:00:00,1.7,1.6,29.7,22.5
1992-02-11 09:00:00,1.3,0.9,20.3,42.6
1992-02-11 12:00:00,0.5,0.1,30.1,69.1
1992-02-11 15:00:00,0.5,0.4,20.4,46.8
1992-02-11 18:00:00,0.9,0.7,23.3,37.1
1992-02-11 21:00:00,1.0,0.6,22.5,53.0
1992-02-12 00:00:00,6.8,6.6,15.5,15.7
1992-02-12 03:00:00,6.0,5.5,3.6,23.1
1992-02-12 06:00:00,6.0,5.5,357.2,22.2
1992-02-12 09:00:00,4.2,3.7,349.0,27.3
1992-02-12 12:00:00,5.4,5.0,356.5,22.4
1992-02-12 15:00:00,7.3,7.1,353.6,14.8
1992-02-12 18:00:00,3.1,2.5,349.1,34.1
1992-02-12 21:00:00,2.0,1.3,38.9,47.2
1992-02-13 00:00:00,1.0,0.4,82.5,60.0
1992-02-13 03:00:00,2.0,1.1,352.2,52.9
1992-02-13 06:00:00,1.5,0.5,187.0,67.1
1992-02-13 09:00:00,1.8,0.5,177.9,68.5
1992-02-13 12:00:00,1.1,0.5,63.6,57.6
1992-02-13 15:00:00,3.0,2.8,22.9,21.8
1992-02-13 18:00:00,2.2,1.7,23.2,38.7
1992-02-13 21:00:00,1.6,1.3,34.6,35.2
1992-02-14 00:00:00,1.8,0.9,360.0,55.7
1992-02-14 03:00:00,3.4,3.2,17.8,21.5
1992-02-14 06:00:00,5.6,5.5,51.0,12.3
1992-02-14 09:00:00,4.3,4.1,33.8,18.9
1992-02-14 12:00:00,2.9,2.6,1.3,24.8
1992-02-14 15:00:00,5.0,4.7,10.2,21.3
1992-02-14 18:00:00,5.9,5.5,50.1,18.7
1992-02-14 21:00:00,4.4,4.0,47.3,23.3
1992-02-15 00:00:00,2.6,2.3,23.3,23.9
1992-02-15 03:00:00,3.9,3.8,32.1,12.5
1992-02-15 06:00:00,3.0,2.8,16.0,24.0
1992-02-15 09:00:00,5.6,5.3,46.2,19.6
1992-02-15 12:00:00,3.2,2.5,35.4,38.0
1992-02-15 15:00:00,1.9,0.1,75.8,78.9
1992-02-15 18:00:00,2.5,2.1,197.2,35.4
1992-02-15 21:00:00,1.5,0.4,180.9,69.0
1992-02-16 00:00:00,1.0,0.6,32.9,47.8
1992-02-16 03:00:00,1.6,1.5,39.0,25.5
1992-02-16 06:00:00,3.5,3.4,25.2,16.6
1992-02-16 09:00:00,3.0,2.5,8.3,31.1
1992-02-16 12:00:00,5.8,5.4,4.9,22.4
1992-02-16 15:00:00,5.7,5.2,3.2,24.4
1992-02-16 18:00:00,7.5,7.4,20.3,10.6
1992-02-16 21:00:00,6.4,5.9,357.1,23.9
1992-02-17 00:00:00,3.9,2.0,331.9,55.9
1992-02-17 03:00:00,7.5,7.2,334.2,17.2
1992-02-17 06:00:00,3.6,1.6,331.5,60.7
1992-02-17 09:00:00,6.5,5.2,340.3,36.5
1992-02-17 12:00:00,10.0,9.6,339.0,17.5
1992-02-17 15:00:00,10.2,9.8,339.6,15.8
1992-02-17 18:00:00,4.1,2.3,315.8,54.0
1992-02-17 21:00:00,5.6,5.2,348.5,21.9
1992-02-18 00:00:00,4.1,2.9,325.8,44.5
1992-02-18 03:00:00,4.1,2.0,315.6,57.1
1992-02-18 06:00:00,8.7,8.3,339.2,18.8
1992-02-18 09:00:00,3.5,1.9,285.0,55.4
1992-02-18 12:00:00,1.1,0.6,179.5,55.6
1992-02-18 15:00:00,0.8,0.3,104.1,65.6
1992-02-18 18:00:00,1.5,0.0,261.1,80.3
1992-02-18 21:00:00,1.5,0.7,175.6,59.5
1992-02-19 00:00:00,1.7,1.0,46.1,52.5
1992-02-19 03:00:00,1.1,0.2,170.2,72.2
1992-02-19 06:00:00,5.6,4.9,347.0,27.9
1992-02-19 09:00:00,7.4,7.1,339.9,15.2
1992-02-19 12:00:00,6.4,6.1,318.3,17.4
1992-02-19 15:00:00,3.4,2.4,316.5,45.4
1992-02-19 18:00:00,3.6,2.8,326.9,37.5
1992-02-19 21:00:00,3.7,2.0,359.9,54.3
1992-02-20 00:00:00,3.8,2.1,28.8,54.6
1992-02-20 03:00:00,3.6,3.4,28.6,22.8
1992-02-20 06:00:00,1.8,1.6,27.3,27.9
1992-02-20 09:00:00,1.6,1.4,29.5,26.4
1992-02-20 12:00:00,1.5,1.1,23.1,43.0
1992-02-20 15:00:00,1.3,1.2,12.3,20.2
1992-02-20 18:00:00,2.1,1.1,12.8,57.3
1992-02-20 21:00:00,2.9,0.7,331.6,71.1
1992-02-21 00:00:00,1.9,1.4,191.2,41.0
1992-02-21 03:00:00,2.3,1.0,258.1,61.2
1992-02-21 06:00:00,3.7,2.4,310.5,48.6
1992-02-21 09:00:00,2.1,0.4,267.9,72.1
1992-02-21 12:00:00,1.9,1.1,12.5,51.8
1992-02-21 15:00:00,6.9,5.4,11.1,37.4
1992-02-21 18:00:00,4.4,2.7,18.7,49.8
1992-02-21 21:00:00,5.9,2.3,198.9,63.0
1992-02-22 00:00:00,6.0,4.8,203.7,36.2
1992-02-22 03:00:00,6.3,3.4,188.4,55.1
1992-02-22 06:00:00,3.4,2.3,39.3,45.5
1992-02-22 09:00:00,3.1,1.7,179.7,54.9
1992-02-22 12:00:00,3.2,2.9,191.3,25.9
1992-02-22 15:00:00,5.2,5.0,189.5,12.4
1992-02-22 18:00:00,4.6,4.2,179.7,22.6
1992-02-22 21:00:00,4.1,1.9,185.6,59.3
1992-02-23 00:00:00,5.6,3.3,350.9,51.6
1992-02-23 03:00:00,8.0,6.0,358.1,40.6
1992-02-23 06:00:00,9.4,8.3,337.9,27.6
1992-02-23 09:00:00,4.5,3.4,328.5,39.5
1992-02-23 12:00:00,7.8,7.3,349.6,21.3
1992-02-23 15:00:00,9.3,8.9,345.5,15.9
1992-02-23 18:00:00,9.3,8.7,2.5,21.3
1992-02-23 21:00:00,8.9,7.8,27.5,28.6
1992-02-24 00:00:00,9.8,8.7,9.3,27.8
1992-02-24 03:00:00,8.8,6.7,17.2,39.1
1992-02-24 06:00:00,8.2,6.5,35.0,37.1
1992-02-24 09:00:00,7.8,6.8,25.0,29.8
1992-02-24 12:00:00,8.1,7.3,356.9,24.9
1992-02-24 15:00:00,2.5,0.3,161.6,76.7
1992-02-24 18:00:00,1.4,1.0,27.6,43.6
1992-02-24 21:00:00,2.4,1.1,156.2,58.5
1992-02-25 00:00:00,4.1,2.1,182.0,56.6
1992-02-25 03:00:00,5.7,4.7,203.6,33.6
1992-02-25 06:00:00,5.3,4.5,204.9,29.7
1992-02-25 09:00:00,6.3,5.6,214.4,26.8
1992-02-25 12:00:00,5.9,5.0,208.0,31.6
1992-02-25 15:00:00,6.4,4.9,208.9,39.4
1992-02-25 18:00:00,6.7,1.9,33.8,69.0
1992-02-25 21:00:00,8.2,7.4,359.8,24.7
1992-02-26 00:00:00,7.3,6.4,356.6,28.7
1992-02-26 03:00:00,9.0,7.7,5.7,30.5
1992-02-26 06:00:00,10.1,9.3,352.7,23.0
1992-02-26 09:00:00,10.5,9.6,9.1,23.5
1992-02-26 12:00:00,6.5,5.9,18.0,25.2
1992-02-26 15:00:00,4.8,3.4,355.0,44.6
1992-02-26 18:00:00,3.4,2.3,0.7,46.1
1992-02-26 21:00:00,1.7,1.6,34.3,22.0
1992-02-27 00:00:00,1.5,1.2,40.8,37.6
1992-02-27 03:00:00,1.5,0.6,111.5,64.1
1992-02-27 06:00:00,7.6,6.9,351.4,25.3
1992-02-27 09:00:00,12.3,11.9,355.0,14.1
1992-02-27 12:00:00,13.0,12.6,350.2,14.5
1992-02-27 15:00:00,12.2,11.8,348.6,14.0
1992-02-27 18:00:00,7.7,7.0,346.9,22.9
1992-02-27 21:00:00,2.1,1.7,21.2,37.6
1992-02-28 00:00:00,1.9,0.6,88.1,68.5
1992-02-28 03:00:00,1.4,0.4,136.5,70.1
1992-02-28 06:00:00,1.3,1.1,6.7,24.1
1992-02-28 09:00:00,1.3,0.1,144.9,76.9
1992-02-28 12:00:00,3.5,2.7,181.5,39.4
1992-02-28 15:00:00,4.1,2.9,207.9,44.2
1992-02-28 18:00:00,3.9,2.8,202.1,43.2
1992-02-28 21:00:00,6.3,3.9,305.3,49.8
1992-02-29 00:00:00,5.5,3.4,16.6,50.1
1992-02-29 03:00:00,5.6,3.7,16.7,47.1
1992-02-29 06:00:00,3.2,1.4,72.8,60.3
1992-02-29 09:00:00,3.4,1.4,162.1,62.5
1992-02-29 12:00:00,3.9,2.8,202.6,42.9
1992-02-29 15:00:00,4.1,1.7,1.0,61.7
1992-02-29 18:00:00,4.5,3.2,331.5,43.7
1992-02-29 21:00:00,6.5,6.0,22.0,22.9
1992-03-01 00:00:00,5.1,4.5,33.6,27.7
1992-03-01 03:00:00,5.3,4.1,10.7,39.2
1992-03-01 06:00:00,4.8,3.4,39.0,43.5
1992-03-01 09:00:00,7.9,6.9,15.6,27.6
1992-03-01 12:00:00,8.4,8.0,3.8,17.0
1992-03-01 15:00:00,9.8,9.3,359.3,16.5
1992-03-01 18:00:00,8.5,8.2,357.8,15.3
1992-03-01 21:00:00,6.0,5.7,357.0,18.5
1992-03-02 00:00:00,4.2,3.4,357.5,34.2
1992-03-02 03:00:00,3.1,2.0,7.1,47.8
1992-03-02 06:00:00,3.1,2.4,12.0,37.1
1992-03-02 09:00:00,1.9,1.7,37.0,29.5
1992-03-02 12:00:00,1.8,1.6,20.7,25.6
1992-03-02 15:00:00,1.5,1.3,5.7,22.5
1992-03-02 18:00:00,1.1,0.5,348.2,58.5
1992-03-02 21:00:00,1.0,0.5,25.2,55.0
1992-03-03 00:00:00,0.9,0.5,27.3,53.3
1992-03-03 03:00:00,0.8,0.5,18.8,52.3
1992-03-03 06:00:00,1.0,0.1,217.2,76.0
1992-03-03 09:00:00,1.1,1.0,11.2,16.1
1992-03-03 12:00:00,0.8,0.2,8.1,69.0
1992-03-03 15:00:00,0.7,0.6,6.6,21.3
1992-03-03 18:00:00,0.8,0.7,17.8,30.8
1992-03-03 21:00:00,0.8,0.5,18.1,46.3
1992-03-04 00:00:00,0.9,0.6,20.3,49.0
1992-03-04 03:00:00,1.3,0.5,60.5,63.1
1992-03-04 06:00:00,1.8,0.7,155.0,62.9
1992-03-04 09:00:00,1.5,0.7,166.7,59.3
1992-03-04 12:00:00,2.7,1.8,4.3,46.0
1992-03-04 15:00:00,2.3,1.0,7.8,60.9
1992-03-04 18:00:00,3.3,2.5,336.4,41.0
1992-03-04 21:00:00,3.0,1.5,308.8,57.0
1992-03-05 00:00:00,2.9,1.2,333.4,61.0
1992-03-05 03:00:00,1.6,1.0,85.0,49.8
1992-03-05 06:00:00,5.3,4.6,4.5,30.3
1992-03-05 09:00:00,4.4,3.5,12.8,37.0
1992-03-05 12:00:00,3.9,2.4,37.1,50.4
1992-03-05 15:00:00,5.7,5.2,21.9,24.3
1992-03-05 18:00:00,4.7,4.4,30.6,22.5
1992-03-05 21:00:00,3.3,2.5,47.4,39.5
1992-03-06 00:00:00,4.0,0.6,133.3,74.5
1992-03-06 03:00:00,5.8,4.5,11.0,39.3
1992-03-06 06:00:00,3.5,1.1,40.1,66.7
1992-03-06 09:00:00,3.4,0.4,90.0,76.0
1992-03-06 12:00:00,2.5,0.3,234.9,76.3
1992-03-06 15:00:00,1.4,0.5,51.1,65.6
1992-03-06 18:00:00,4.0,3.0,195.3,40.6
1992-03-06 21:00:00,3.7,0.2,336.8,78.3
1992-03-07 00:00:00,4.8,4.1,26.1,29.7
1992-03-07 03:00:00,4.7,0.6,191.4,75.6
1992-03-07 06:00:00,11.5,10.3,354.6,26.6
1992-03-07 09:00:00,9.6,8.7,2.8,24.4
1992-03-07 12:00:00,7.3,6.0,5.6,35.0
1992-03-07 15:00:00,7.8,6.8,353.9,29.1
1992-03-07 18:00:00,4.0,2.9,347.7,43.0
1992-03-07 21:00:00,4.9,2.1,353.3,61.1
1992-03-08 00:00:00,7.8,7.4,357.2,18.4
1992-03-08 03:00:00,8.2,7.8,5.5,18.7
1992-03-08 06:00:00,7.8,7.0,3.2,25.8
1992-03-08 09:00:00,8.3,8.0,348.7,16.0
1992-03-08 12:00:00,7.6,6.8,340.8,27.3
1992-03-08 15:00:00,2.1,0.7,26.5,65.8
1992-03-08 18:00:00,5.7,5.3,18.1,20.5
1992-03-08 21:00:00,6.8,6.4,16.4,20.1
1992-03-09 00:00:00,8.5,8.1,21.3,17.6
1992-03-09 03:00:00,7.2,6.3,354.3,29.2
1992-03-09 06:00:00,2.7,1.2,37.3,59.8
1992-03-09 09:00:00,2.2,0.4,139.6,72.9
1992-03-09 12:00:00,3.8,2.4,353.1,49.0
1992-03-09 15:00:00,3.3,2.0,349.5,49.8
1992-03-09 18:00:00,4.1,0.6,194.0,75.1
1992-03-09 21:00:00,7.3,6.5,210.2,26.4
1992-03-10 00:00:00,4.6,1.2,23.8,69.4
1992-03-10 03:00:00,6.7,4.5,13.1,46.6
1992-03-10 06:00:00,7.7,6.5,358.8,31.8
1992-03-10 09:00:00,1.8,0.3,168.0,73.2
1992-03-10 12:00:00,1.5,0.4,127.3,67.7
1992-03-10 15:00:00,1.7,1.2,183.5,44.3
1992-03-10 18:00:00,1.9,0.9,181.9,59.6
1992-03-10 21:00:00,2.7,1.5,176.4,53.3
1992-03-11 00:00:00,1.8,1.2,38.5,45.3
1992-03-11 03:00:00,0.8,0.2,40.4,68.5
1992-03-11 06:00:00,2.0,1.4,356.7,41.5
1992-03-11 09:00:00,3.2,0.1,310.1,79.6
1992-03-11 12:00:00,4.3,3.6,351.9,33.3
1992-03-11 15:00:00,4.7,3.4,209.9,41.7
1992-03-11 18:00:00,3.9,1.3,184.4,66.7
1992-03-11 21:00:00,5.2,3.9,216.0,40.2
1992-03-12 00:00:00,4.9,4.0,216.0,33.9
1992-03-12 03:00:00,5.3,4.6,221.9,28.7
1992-03-12 06:00:00,4.6,2.8,297.4,50.7
1992-03-12 09:00:00,2.6,0.6,2.7,70.8
1992-03-12 12:00:00,1.9,0.6,113.5,65.8
1992-03-12 15:00:00,2.7,1.3,195.3,58.0
1992-03-12 18:00:00,2.3,2.1,194.7,20.7
1992-03-12 21:00:00,7.4,7.2,184.8,12.7
1992-03-13 00:00:00,7.3,7.2,185.7,9.2
1992-03-13 03:00:00,5.8,5.8,182.6,8.0
1992-03-13 06:00:00,4.1,4.0,173.4,12.1
1992-03-13 09:00:00,5.5,5.4,180.8,10.4
1992-03-13 12:00:00,7.6,7.5,182.5,8.3
1992-03-13 15:00:00,7.1,7.0,184.4,8.1
1992-03-13 18:00:00,4.5,4.4,190.9,10.1
1992-03-13 21:00:00,4.7,4.6,183.0,7.8
1992-03-14 00:00:00,2.8,2.8,181.8,9.2
1992-03-14 03:00:00,1.1,0.3,200.8,68.8
1992-03-14 06:00:00,2.0,1.5,10.0,40.4
1992-03-14 09:00:00,1.9,1.7,32.9,21.6
1992-03-14 12:00:00,1.9,1.8,25.1,17.0
1992-03-14 15:00:00,2.2,2.2,16.7,12.7
1992-03-14 18:00:00,2.2,2.1,27.2,16.9
1992-03-14 21:00:00,2.0,1.9,33.4,18.2
1992-03-15 00:00:00,2.0,1.9,33.4,21.6
1992-03-15 03:00:00,1.6,1.3,38.1,30.8
1992-03-15 06:00:00,1.1,0.4,72.3,67.2
1992-03-15 09:00:00,4.1,3.3,353.8,35.4
1992-03-15 12:00:00,7.8,7.4,4.8,18.4
1992-03-15 15:00:00,7.5,6.4,3.4,31.4
1992-03-15 18:00:00,9.6,8.7,0.7,24.4
1992-03-15 21:00:00,6.2,5.1,352.2,34.3
1992-03-16 00:00:00,5.9,5.5,336.8,19.6
1992-03-16 03:00:00,8.9,8.5,344.2,15.7
1992-03-16 06:00:00,10.5,10.2,348.1,12.6
1992-03-16 09:00:00,8.8,8.4,347.8,16.0
1992-03-16 12:00:00,6.8,6.2,340.3,24.2
1992-03-16 15:00:00,6.4,5.5,358.1,31.1
1992-03-16 18:00:00,5.2,4.8,12.1,23.8
1992-03-16 21:00:00,1.9,0.9,71.4,59.1
1992-03-17 00:00:00,1.9,1.8,20.5,19.0
1992-03-17 03:00:00,1.4,0.6,38.5,61.9
1992-03-17 06:00:00,1.1,0.6,10.3,51.8
1992-03-17 09:00:00,0.9,0.4,13.8,60.1
1992-03-17 12:00:00,3.4,1.5,22.7,60.6
1992-03-17 15:00:00,4.6,1.0,199.0,71.5
1992-03-17 18:00:00,6.8,6.1,212.6,25.7
1992-03-17 21:00:00,6.0,5.3,209.6,26.6
1992-03-18 00:00:00,5.0,3.8,209.1,38.9
1992-03-18 03:00:00,4.3,3.6,187.9,33.7
1992-03-18 06:00:00,5.9,5.0,186.8,31.2
1992-03-18 09:00:00,5.9,5.1,201.9,28.4
1992-03-18 12:00:00,7.3,6.8,206.9,22.3